EW4169 Weather Reports


Display with metric or nautical units.
time (UTC)temp
F
wind
direction
speed
MPH
gust
MPH
rain 1hr
in
rain 24hr
in
rain mn
in
humidity
%
barometer
mb
20260506090013 57 269 0.0 1.0 0.00 0.03 0.00 82 1004.5
20260506084542 59 117 2.0 3.0 0.00 0.03 0.00 77 1004.8
20260506083016 60 219 0.0 2.0 0.00 0.03 0.00 72 1005.1
20260506081540 61 231 4.0 9.0 0.00 0.03 0.00 70 1005.4
20260506073016 62 311 5.0 19.0 0.00 0.05 0.00 67 1005.3
20260506071546 63 291 8.0 17.0 0.00 0.05 0.00 64 1005.4
20260506061552 57 97 0.0 0.0 0.00 0.05 0.00 75 1005.8
20260506044610 57 330 0.0 1.0 0.00 0.05 0.00 79 1006.3
20260506043016 56 330 0.0 1.0 0.00 0.05 0.00 81 1006.4
20260506041555 56 330 0.0 0.0 0.00 0.05 0.00 81 1006.5
20260506040041 56 330 0.0 0.0 0.00 0.05 0.05 82 1006.5
20260506034520 56 78 0.0 2.0 0.00 0.05 0.05 81 1006.3
20260506033055 57 281 0.0 1.0 0.00 0.05 0.05 81 1006.2
20260506031532 57 281 1.0 3.0 0.00 0.05 0.05 82 1006.1
20260506030057 57 281 0.0 0.0 0.00 0.05 0.05 79 1006.3
20260506024546 57 281 0.0 2.0 0.00 0.05 0.05 79 1006.4
20260506023100 58 281 1.0 2.0 0.00 0.05 0.05 78 1006.5
20260506021516 59 281 0.0 0.0 0.00 0.05 0.05 75 1006.5
20260506020050 60 281 0.0 2.0 0.00 0.05 0.05 74 1006.4
20260506014517 60 281 0.0 2.0 0.00 0.05 0.05 73 1006.3
20260506013040 62 139 0.0 2.0 0.00 0.05 0.05 69 1006.3
20260506011558 64 122 0.0 2.0 0.00 0.05 0.05 64 1006.1
20260506010040 65 256 1.0 2.0 0.00 0.05 0.05 62 1005.9
20260506004518 66 172 0.0 1.0 0.00 0.05 0.05 59 1006.0
20260506003020 68 215 1.0 7.0 0.00 0.05 0.05 56 1005.9
20260506001546 68 234 3.0 10.0 0.00 0.05 0.05 55 1005.7
20260506000055 68 231 3.0 8.0 0.00 0.05 0.05 56 1005.6
20260505234536 69 255 5.0 11.0 0.00 0.05 0.05 56 1005.6
20260505233049 69 206 3.0 6.0 0.00 0.05 0.05 56 1005.5
20260505231522 69 219 2.0 8.0 0.00 0.05 0.05 55 1005.4
20260505230054 70 255 3.0 7.0 0.00 0.05 0.05 54 1005.4
20260505224524 70 240 4.0 8.0 0.00 0.05 0.05 54 1005.5
20260505223101 69 238 3.0 10.0 0.00 0.05 0.05 55 1005.6
20260505223002 69 228 3.0 10.0 0.00 0.05 0.05 55 1005.6
20260505221522 70 253 10.0 14.0 0.00 0.05 0.05 55 1005.6
20260505220100 70 282 8.0 15.0 0.00 0.05 0.05 54 1005.6
20260505220002 70 250 7.0 13.0 0.00 0.05 0.05 55 1005.6
20260505214529 70 278 8.0 16.0 0.00 0.05 0.05 54 1005.5
20260505213052 69 256 7.0 18.0 0.00 0.05 0.05 56 1005.5
20260505211520 69 259 4.0 11.0 0.01 0.05 0.05 58 1005.6
20260505210048 69 262 6.0 11.0 0.01 0.05 0.05 58 1005.5
20260505204510 68 276 7.0 13.0 0.01 0.05 0.05 62 1005.6
20260505203038 72 262 7.0 11.0 0.01 0.05 0.05 52 1005.6
20260505201516 73 252 6.0 13.0 0.00 0.04 0.04 43 1005.0
20260505200043 73 243 5.0 12.0 0.00 0.04 0.04 46 1005.1
20260505194524 72 223 3.0 8.0 0.00 0.04 0.04 49 1005.4
20260505193042 72 229 4.0 11.0 0.00 0.04 0.04 47 1005.5
20260505191522 73 208 8.0 19.0 0.00 0.04 0.04 43 1005.6
20260505190044 73 219 8.0 14.0 0.00 0.04 0.04 42 1005.5
20260505184538 74 232 8.0 18.0 0.00 0.04 0.04 41 1005.3
20260505183057 75 241 7.0 18.0 0.00 0.04 0.04 39 1005.2
20260505181540 76 185 9.0 21.0 0.00 0.04 0.04 39 1005.1
20260505180107 75 148 7.0 18.0 0.00 0.04 0.04 42 1005.5
20260505180002 75 233 10.0 18.0 0.00 0.04 0.04 40 1005.5
20260505174552 75 169 7.0 21.0 0.00 0.04 0.04 40 1005.7
20260505173058 74 206 9.0 18.0 0.00 0.04 0.04 40 1005.9
20260505171536 74 211 6.0 16.0 0.00 0.04 0.04 43 1006.1
20260505170010 73 257 10.0 19.0 0.00 0.04 0.04 44 1006.1
20260505164540 73 247 10.0 23.0 0.00 0.04 0.04 44 1006.3
20260505163011 71 179 7.0 17.0 0.00 0.04 0.04 47 1006.2
20260505161534 72 219 12.0 21.0 0.00 0.04 0.04 47 1006.6
20260505153012 71 226 8.0 19.0 0.00 0.04 0.04 52 1007.3
20260505151532 69 251 9.0 20.0 0.00 0.04 0.04 52 1007.4
20260505124524 63 255 3.0 7.0 0.00 0.04 0.04 77 1007.5
20260505123043 61 263 2.0 4.0 0.00 0.04 0.04 81 1007.5
20260505121525 58 229 2.0 4.0 0.00 0.04 0.04 85 1007.7
20260505120039 57 219 0.0 4.0 0.00 0.04 0.04 85 1007.8
20260505114522 56 226 1.0 4.0 0.01 0.04 0.04 87 1007.9
20260505113047 55 235 0.0 2.0 0.02 0.04 0.04 90 1007.9
20260505111524 53 246 1.0 2.0 0.02 0.04 0.04 89 1007.6
20260505101557 51 276 0.0 1.0 0.00 0.02 0.02 92 1007.2
20260505100049 50 284 0.0 1.0 0.00 0.02 0.02 94 1007.2
20260505094542 49 287 1.0 3.0 0.00 0.02 0.02 94 1007.0
20260505093016 49 287 0.0 0.0 0.00 0.02 0.02 94 1007.2
20260505091551 49 287 0.0 2.0 0.00 0.02 0.02 93 1007.1